Starlink 5773

operational
NORAD ID: 57074 Int'l Des: 2023-088 Owner: SPXS Country: US Constellation: starlink
LEOCIRCULAR

About Starlink 5773

Description loading...

Live Position

Loading 3D Globe...

Upcoming Passes

Altitude History

Altitude vs Time

uPlot chart will show altitude changes over time

Two-Line Element Set

1 57074U 23088AC 26049.47134588 .00000236 00000-0 32517-4 0 9998
2 57074 43.0022 211.4746 0001175 256.2011 103.8700 15.02534682147481
Epoch: Feb 18, 2026 • Age: 23 hours

Current Status

Altitude 559.6 km
Velocity 7.59 km/s
Sub-Earth Point 25.58°N, 59.61°W
Launch Date Jun 22, 2023
Age 2.6 years
Type internet

Technical Details

Classification Payload
Mass 305.00 kg
Dry Mass 290.00 kg
Total Mass 305.00 kg
Length 0.20 m
Diameter 2.80 m
Span 9.00 m
Shape Box + pan
Manufacturer SPXS
Bus Type Starlink
Phase Status In Orbit
Owner/State SPXS/US

Large Constellations

Loading constellations...